Regional Weather Roundup
Issued by NWS Newport/Morehead, NC

Current Version | Previous Version | Text Only | Print | Product List | Glossary On
Versions: 1 2 3 4 5 6 7 8 9 10 11 12 13 14 15 16 17 18 19 20 21 22 23 24 25 26 27 28 29 30 31 32 33 34 35 36 37 38 39 40 41 42 43 44 45 46 47 48 49 50
000 ASUS42 KMHX 191710 RWRMHX WEATHER ROUNDUP FOR EASTERN NORTH CAROLINA NATIONAL WEATHER SERVICE NEWPORT/MOREHEAD CITY NC 1200 PM EST FRI DEC 19 2014 NOTE: "FAIR" INDICATES FEW OR NO CLOUDS BELOW 12,000 FEET WITH NO SIGNIFICANT WEATHER AND/OR OBSTRUCTIONS TO VISIBILITY NCZ015>017-031-032-045>047-102-103-191800- NORTH COAST CITY SKY/WX TMP DP RH WIND PRES REMARKS EDENTON SUNNY 46 30 55 NW6 30.16F ELIZABETH CITY SUNNY 48 29 47 N6 30.15F KITTY HAWK SUNNY 44 32 64 N8 30.12F MANTEO SUNNY 44 31 60 NW7 30.14F $$ NCZ045>047-081-094-103-104-191800- CENTRAL COAST CITY SKY/WX TMP DP RH WIND PRES REMARKS FRISCO SUNNY 47 37 68 N8 30.13F SWANQUARTER N/A 48 N/A N/A NE10 30.09F $$ NCZ095-097-098-100-101-191800- SOUTHERN COAST CITY SKY/WX TMP DP RH WIND PRES REMARKS BEAUFORT SUNNY 52 27 38 N9 30.13F CEDAR ISLAND N/A 46 N/A N/A N5G12 30.18S JACKSONVILLE SUNNY 52 27 38 CALM 30.13F PINEY ISLAND SUNNY 50 32 50 NW7 30.13F WILMINGTON SUNNY 56 23 27 N8 30.13F $$ NCZ011>013-027>030-043-044-078>080-089-090>093-098-191800- COASTAL PLAIN CITY SKY/WX TMP DP RH WIND PRES REMARKS AHOSKIE SUNNY 42 26 52 CALM 30.17F CLINTON SUNNY 52 31 44 NW7 30.15F ELIZABETHTOWN SUNNY 53 25 33 N3 30.14F GOLDSBORO SUNNY 49 30 48 N2 30.14F GREENVILLE SUNNY 45 32 61 N5 30.17F HAVELOCK SUNNY 51 26 37 N8 30.15F KENANSVILLE SUNNY 50 26 39 N6 30.16F KINSTON SUNNY 48 30 49 N3 30.16F NEW BERN SUNNY 52 27 38 NW7 30.15F RICHLANDS SUNNY 52 25 35 W3 30.15F ROCKY MOUNT SUNNY 45 27 49 N7 30.16F WASHINGTON SUNNY 46 29 52 NE6 30.16F WHITEVILLE SUNNY 53 23 30 NE5 30.14F $$ AMZ130-135-150-152-154-156-158-170-250-252-270-ANZ085-086-088-633-658-670-191800- MARINE OBSERVATIONS STATION/POSITION TIME TEMP WIND PRES WAVE SWELL AIR SEA DIR/SP/G HT/PER HT/PER (UTC) (F) (DEG/KT/KT) (MB) (FT/S) (FT/S) CHESAPEAKE LIGHT 1600 39 340/ 14/ 16 1021.5 64 E VA BEACH 1700 42 55 320/ 16/ 21 1019.6 3/ 5 2/10 DUCK 1700 41 47 10/ 9/ 13 1019.9 2 E DUCK 1700 48 N/A 3/ 5 10 NE DUCK 1700 51 N/A 3/ 5 OREGON INLET 1700 44 50 360/ 10/ 14 1020.5 13E OREGON INLT 1700 53 N/A 3/11 2/11 HATTERAS CG 1700 45 53 350/ 10/ 12 1020.7 DIAMOND BUOY 1700 49 1020.4 2/ 8 17 S OCRACOKE NOT AVBL CAPE LOOKOUT 1600 49 340/ 9/ 10 1021.0 BEAUFORT LAB 1700 49 53 360/ 7/ 10 1019.5 30 SE NEW RIVER 1700 50 61 350/ 10/ 12 1021.0 2/ 8 2/ 8 5 SE WRIGHTSVLE NOT AVBL 225 S CAPE HAT 1614 68 72 350/ 8/ 10 1019.1 3/ 9 3/ 9 41 SE CHARLESTON 1700 61 67 20/ 4/ 6 1020.1 1/10 2/10 $$

USA.gov is the U.S. government's official web portal to all federal, state and local government web resources and services.